Location: Berlise
(49.6641°N, 4.1077°E)
Time: 19:05:01
(UTC+00:00)

SL-4 R/B - Pass Details

Date: 27 January 2021
Orbit: 427 x 664 km, 51.6° (Epoch: 27 February)

Event Time Altitude Azimuth Distance (km) Brightness Sun altitude
Exits shadow 04:55:18 54° 143° (SE) 612 2.3 -23.7°
Drops below altitude 10° 04:59:05 10° 75° (ENE) 1,775 5.6 -23.1°
Sets 05:01:26 0° 71° (ENE) 2,714 6.7 -22.7°
